Time,TemperatureF,DewpointF,PressureIn,WindDirection,WindDirectionDegrees,WindSpeedMPH,WindSpeedGustMPH,Humidity,HourlyPrecipIn,Conditions,Clouds,dailyrainin,SoftwareType,DateUTC
2014-09-02 00:09:00,73.6,66.3,30.01,SW,222,0.0,0.0,78,0.00,,,0.00,Wunderground v.1.15,2014-09-02 05:09:00,
2014-09-02 00:14:00,73.5,66.2,30.01,SW,222,0.0,0.0,78,0.00,,,0.00,Wunderground v.1.15,2014-09-02 05:14:00,
2014-09-02 00:24:00,73.4,65.4,30.01,SW,222,0.0,0.0,76,0.00,,,0.00,Wunderground v.1.15,2014-09-02 05:24:00,
2014-09-02 00:34:00,73.2,64.8,30.01,SW,222,0.0,0.0,75,0.00,,,0.00,Wunderground v.1.15,2014-09-02 05:34:00,
2014-09-02 00:44:00,73.1,64.3,30.02,SW,222,0.0,0.0,74,0.00,,,0.00,Wunderground v.1.15,2014-09-02 05:44:00,
2014-09-02 00:54:00,73.0,63.8,30.02,SW,222,0.0,0.0,73,0.00,,,0.00,Wunderground v.1.15,2014-09-02 05:54:00,
2014-09-02 01:04:00,72.9,62.9,30.02,SW,222,0.0,0.0,71,0.00,,,0.00,Wunderground v.1.15,2014-09-02 06:04:00,
2014-09-02 01:09:00,72.9,62.9,30.01,SW,222,0.0,0.0,71,0.00,,,0.00,Wunderground v.1.15,2014-09-02 06:09:00,
2014-09-02 01:19:00,72.8,62.4,30.01,SW,222,0.0,0.0,70,0.00,,,0.00,Wunderground v.1.15,2014-09-02 06:19:00,
2014-09-02 01:29:00,72.6,62.7,30.01,SW,222,0.0,0.0,71,0.00,,,0.00,Wunderground v.1.15,2014-09-02 06:29:00,
2014-09-02 01:34:00,72.5,62.2,30.01,SW,222,0.0,0.0,70,0.00,,,0.00,Wunderground v.1.15,2014-09-02 06:34:00,
2014-09-02 01:44:00,72.5,60.9,30.01,SW,222,0.0,0.0,67,0.00,,,0.00,Wunderground v.1.15,2014-09-02 06:44:00,
2014-09-02 01:54:00,72.4,60.8,30.01,SW,222,0.0,0.0,67,0.00,,,0.00,Wunderground v.1.15,2014-09-02 06:54:00,
2014-09-02 01:59:00,72.4,60.8,30.01,SW,222,0.0,0.0,67,0.00,,,0.00,Wunderground v.1.15,2014-09-02 06:59:00,
2014-09-02 02:04:00,72.4,60.4,30.01,SW,222,0.0,0.0,66,0.00,,,0.00,Wunderground v.1.15,2014-09-02 07:04:00,
2014-09-02 02:14:00,72.4,60.8,30.02,SW,222,0.0,0.0,67,0.00,,,0.00,Wunderground v.1.15,2014-09-02 07:14:00,
2014-09-02 02:24:00,72.2,60.6,30.02,SW,222,0.0,0.0,67,0.00,,,0.00,Wunderground v.1.15,2014-09-02 07:24:00,
2014-09-02 02:34:00,72.1,60.5,30.02,SW,222,0.0,0.0,67,0.00,,,0.00,Wunderground v.1.15,2014-09-02 07:34:00,
2014-09-02 02:39:00,72.0,60.0,30.02,SW,222,0.0,0.0,66,0.00,,,0.00,Wunderground v.1.15,2014-09-02 07:39:00,
2014-09-02 02:49:00,71.8,59.4,30.03,SW,222,0.0,0.0,65,0.00,,,0.00,Wunderground v.1.15,2014-09-02 07:49:00,
2014-09-02 02:54:00,71.8,59.0,30.03,SW,222,0.0,0.0,64,0.00,,,0.00,Wunderground v.1.15,2014-09-02 07:54:00,
2014-09-02 02:59:00,71.7,58.9,30.03,SW,222,0.0,0.0,64,0.00,,,0.00,Wunderground v.1.15,2014-09-02 07:59:00,
2014-09-02 03:04:00,71.7,57.5,30.03,SW,222,0.0,0.0,61,0.00,,,0.00,Wunderground v.1.15,2014-09-02 08:04:00,
2014-09-02 03:09:00,71.7,57.5,30.04,SW,222,0.0,0.0,61,0.00,,,0.00,Wunderground v.1.15,2014-09-02 08:09:00,
2014-09-02 03:19:00,71.9,58.2,30.04,SW,219,0.0,0.0,62,0.00,,,0.00,Wunderground v.1.15,2014-09-02 08:19:00,
2014-09-02 03:29:00,71.9,58.6,30.04,SW,219,0.0,0.0,63,0.00,,,0.00,Wunderground v.1.15,2014-09-02 08:29:00,
2014-09-02 03:34:00,71.8,59.0,30.04,SW,220,0.0,0.0,64,0.00,,,0.00,Wunderground v.1.15,2014-09-02 08:34:00,
2014-09-02 03:44:00,71.7,58.0,30.04,SW,219,0.0,0.0,62,0.00,,,0.00,Wunderground v.1.15,2014-09-02 08:44:00,
2014-09-02 03:49:00,71.7,58.0,30.04,SW,219,0.0,0.0,62,0.00,,,0.00,Wunderground v.1.15,2014-09-02 08:49:00,
2014-09-02 03:59:00,71.5,58.7,30.03,SW,219,0.0,0.0,64,0.00,,,0.00,Wunderground v.1.15,2014-09-02 08:59:00,
2014-09-02 04:04:00,71.4,58.6,30.03,SW,219,0.0,0.0,64,0.00,,,0.00,Wunderground v.1.15,2014-09-02 09:04:00,
2014-09-02 04:09:00,71.3,58.1,30.03,SW,219,0.0,0.0,63,0.00,,,0.00,Wunderground v.1.15,2014-09-02 09:09:00,
2014-09-02 04:14:00,71.2,56.6,30.03,SW,219,0.0,0.0,60,0.00,,,0.00,Wunderground v.1.15,2014-09-02 09:14:00,
2014-09-02 04:19:00,71.1,57.0,30.03,SW,219,0.0,0.0,61,0.00,,,0.00,Wunderground v.1.15,2014-09-02 09:19:00,
2014-09-02 04:29:00,71.0,56.9,30.03,SW,219,0.0,0.0,61,0.00,,,0.00,Wunderground v.1.15,2014-09-02 09:29:00,
2014-09-02 04:34:00,70.9,55.9,30.03,SW,219,0.0,0.0,59,0.00,,,0.00,Wunderground v.1.15,2014-09-02 09:34:00,
2014-09-02 04:44:00,70.8,55.3,30.04,SW,219,0.0,0.0,58,0.00,,,0.00,Wunderground v.1.15,2014-09-02 09:44:00,
2014-09-02 04:54:00,70.6,54.6,30.04,SW,219,0.0,0.0,57,0.00,,,0.00,Wunderground v.1.15,2014-09-02 09:54:00,
2014-09-02 04:59:00,70.6,54.6,30.04,SW,219,0.0,0.0,57,0.00,,,0.00,Wunderground v.1.15,2014-09-02 09:59:00,
2014-09-02 05:09:00,70.4,54.4,30.03,SW,219,0.0,0.0,57,0.00,,,0.00,Wunderground v.1.15,2014-09-02 10:09:00,
2014-09-02 05:14:00,70.4,54.4,30.04,SW,219,0.0,0.0,57,0.00,,,0.00,Wunderground v.1.15,2014-09-02 10:14:00,
2014-09-02 05:24:00,70.2,53.8,30.04,SW,219,0.0,0.0,56,0.00,,,0.00,Wunderground v.1.15,2014-09-02 10:24:00,
2014-09-02 05:29:00,70.2,53.8,30.04,SW,220,0.0,0.0,56,0.00,,,0.00,Wunderground v.1.15,2014-09-02 10:29:00,
2014-09-02 05:39:00,70.1,53.7,30.04,SW,219,0.0,0.0,56,0.00,,,0.00,Wunderground v.1.15,2014-09-02 10:39:00,
2014-09-02 05:44:00,70.0,53.6,30.04,SW,219,0.0,0.0,56,0.00,,,0.00,Wunderground v.1.15,2014-09-02 10:44:00,
2014-09-02 05:49:00,69.9,53.5,30.04,SW,219,0.0,0.0,56,0.00,,,0.00,Wunderground v.1.15,2014-09-02 10:49:00,
2014-09-02 05:59:00,69.8,52.4,30.05,SW,219,0.0,0.0,54,0.00,,,0.00,Wunderground v.1.15,2014-09-02 10:59:00,
2014-09-02 06:04:00,69.8,52.4,30.05,SW,219,0.0,0.0,54,0.00,,,0.00,Wunderground v.1.15,2014-09-02 11:04:00,
2014-09-02 06:14:00,69.7,52.3,30.05,SW,219,0.0,0.0,54,0.00,,,0.00,Wunderground v.1.15,2014-09-02 11:14:00,
2014-09-02 06:19:00,69.7,52.3,30.05,SW,219,0.0,0.0,54,0.00,,,0.00,Wunderground v.1.15,2014-09-02 11:19:00,
2014-09-02 06:29:00,69.7,51.3,30.05,SW,219,0.0,0.0,52,0.00,,,0.00,Wunderground v.1.15,2014-09-02 11:29:00,
2014-09-02 06:39:00,69.6,51.7,30.05,SW,219,0.0,0.0,53,0.00,,,0.00,Wunderground v.1.15,2014-09-02 11:39:00,
2014-09-02 06:44:00,69.6,51.2,30.06,SW,219,0.0,0.0,52,0.00,,,0.00,Wunderground v.1.15,2014-09-02 11:44:00,
2014-09-02 06:54:00,69.7,51.3,30.06,SW,219,0.0,0.0,52,0.00,,,0.00,Wunderground v.1.15,2014-09-02 11:54:00,
2014-09-02 06:59:00,69.9,50.9,30.06,SW,219,0.0,0.0,51,0.00,,,0.00,Wunderground v.1.15,2014-09-02 11:59:00,
2014-09-02 07:09:00,70.7,51.1,30.06,SW,219,0.0,0.0,50,0.00,,,0.00,Wunderground v.1.15,2014-09-02 12:09:00,
2014-09-02 07:14:00,71.2,51.6,30.06,SW,219,0.0,0.0,50,0.00,,,0.00,Wunderground v.1.15,2014-09-02 12:14:00,
2014-09-02 07:19:00,71.7,52.1,30.06,SW,219,0.0,0.0,50,0.00,,,0.00,Wunderground v.1.15,2014-09-02 12:19:00,
2014-09-02 07:24:00,72.0,52.3,30.06,SW,219,0.0,0.0,50,0.00,,,0.00,Wunderground v.1.15,2014-09-02 12:24:00,
2014-09-02 07:34:00,72.7,53.0,30.06,SW,219,0.0,0.0,50,0.00,,,0.00,Wunderground v.1.15,2014-09-02 12:34:00,
2014-09-02 07:39:00,73.1,53.4,30.06,SW,219,0.0,0.0,50,0.00,,,0.00,Wunderground v.1.15,2014-09-02 12:39:00,
2014-09-02 07:44:00,73.5,54.8,30.06,SW,219,0.0,0.0,52,0.00,,,0.00,Wunderground v.1.15,2014-09-02 12:44:00,
2014-09-02 07:49:00,74.1,57.4,30.06,SW,220,0.0,0.0,56,0.00,,,0.00,Wunderground v.1.15,2014-09-02 12:49:00,
2014-09-02 07:54:00,74.8,60.4,30.06,SW,219,0.0,0.0,61,0.00,,,0.00,Wunderground v.1.15,2014-09-02 12:54:00,
2014-09-02 07:59:00,75.3,64.4,30.07,SW,219,0.0,0.0,69,0.00,,,0.00,Wunderground v.1.15,2014-09-02 12:59:00,
2014-09-02 08:09:00,76.6,69.2,30.07,SW,219,0.0,0.0,78,0.00,,,0.00,Wunderground v.1.15,2014-09-02 13:09:00,
2014-09-02 08:19:00,77.6,71.3,30.07,SW,219,0.0,0.0,81,0.00,,,0.00,Wunderground v.1.15,2014-09-02 13:19:00,
2014-09-02 08:24:00,78.1,71.8,30.07,SW,220,0.0,0.0,81,0.00,,,0.00,Wunderground v.1.15,2014-09-02 13:24:00,
2014-09-02 08:34:00,79.2,73.6,30.07,WNW,297,0.0,0.0,83,0.00,,,0.00,Wunderground v.1.15,2014-09-02 13:34:00,
2014-09-02 08:44:00,79.7,74.1,30.07,NNE,17,0.0,1.0,83,0.00,,,0.00,Wunderground v.1.15,2014-09-02 13:44:00,
2014-09-02 08:49:00,79.9,74.3,30.07,NNW,333,0.0,1.0,83,0.00,,,0.00,Wunderground v.1.15,2014-09-02 13:49:00,
2014-09-02 08:59:00,80.5,74.9,30.07,NNE,25,0.0,0.0,83,0.00,,,0.00,Wunderground v.1.15,2014-09-02 13:59:00,
2014-09-02 09:09:00,81.2,75.5,30.07,NW,312,0.0,1.0,83,0.00,,,0.00,Wunderground v.1.15,2014-09-02 14:09:00,
2014-09-02 09:14:00,81.7,76.0,30.07,NW,311,1.0,2.0,83,0.00,,,0.00,Wunderground v.1.15,2014-09-02 14:14:00,
2014-09-02 09:24:00,82.6,76.5,30.07,SW,224,1.0,1.0,82,0.00,,,0.00,Wunderground v.1.15,2014-09-02 14:24:00,
2014-09-02 09:29:00,83.2,76.0,30.07,WSW,246,1.0,1.0,79,0.00,,,0.00,Wunderground v.1.15,2014-09-02 14:29:00,
2014-09-02 09:39:00,84.0,76.8,30.07,NW,318,0.0,0.0,79,0.00,,,0.00,Wunderground v.1.15,2014-09-02 14:39:00,
2014-09-02 09:49:00,85.1,75.9,30.07,WNW,298,0.0,1.0,74,0.00,,,0.00,Wunderground v.1.15,2014-09-02 14:49:00,
2014-09-02 09:54:00,85.1,76.3,30.07,North,4,1.0,1.0,75,0.00,,,0.00,Wunderground v.1.15,2014-09-02 14:54:00,
2014-09-02 09:59:00,85.4,75.8,30.07,South,188,1.0,1.0,73,0.00,,,0.00,Wunderground v.1.15,2014-09-02 14:59:00,
2014-09-02 10:09:00,86.2,76.1,30.07,South,176,1.0,1.0,72,0.00,,,0.00,Wunderground v.1.15,2014-09-02 15:09:00,
2014-09-02 10:19:00,86.7,75.3,30.07,SSW,207,1.0,1.0,69,0.00,,,0.00,Wunderground v.1.15,2014-09-02 15:19:00,
2014-09-02 10:24:00,87.0,76.0,30.07,SSW,194,0.0,1.0,70,0.00,,,0.00,Wunderground v.1.15,2014-09-02 15:24:00,
2014-09-02 10:29:00,87.7,75.8,30.07,SSW,193,0.0,0.0,68,0.00,,,0.00,Wunderground v.1.15,2014-09-02 15:29:00,
2014-09-02 10:39:00,89.2,76.8,30.07,East,87,0.0,1.0,67,0.00,,,0.00,Wunderground v.1.15,2014-09-02 15:39:00,
2014-09-02 10:44:00,89.6,74.9,30.06,SW,236,1.0,1.0,62,0.00,,,0.00,Wunderground v.1.15,2014-09-02 15:44:00,
2014-09-02 10:49:00,89.7,75.9,30.06,SSE,167,1.0,1.0,64,0.00,,,0.00,Wunderground v.1.15,2014-09-02 15:49:00,
2014-09-02 10:54:00,90.3,76.0,30.06,SSE,161,0.0,1.0,63,0.00,,,0.00,Wunderground v.1.15,2014-09-02 15:54:00,
2014-09-02 11:04:00,91.1,74.3,30.06,NNW,342,0.0,1.0,58,0.00,,,0.00,Wunderground v.1.15,2014-09-02 16:04:00,
2014-09-02 11:09:00,90.7,75.4,30.05,NW,318,0.0,1.0,61,0.00,,,0.00,Wunderground v.1.15,2014-09-02 16:09:00,
2014-09-02 11:14:00,90.8,74.0,30.05,ESE,121,0.0,1.0,58,0.00,,,0.00,Wunderground v.1.15,2014-09-02 16:14:00,
2014-09-02 11:19:00,90.6,74.8,30.05,SE,133,1.0,1.0,60,0.00,,,0.00,Wunderground v.1.15,2014-09-02 16:19:00,
2014-09-02 11:24:00,91.6,75.7,30.05,East,100,0.0,1.0,60,0.00,,,0.00,Wunderground v.1.15,2014-09-02 16:24:00,
2014-09-02 11:29:00,92.6,75.7,30.05,SSE,160,0.0,0.0,58,0.00,,,0.00,Wunderground v.1.15,2014-09-02 16:29:00,
2014-09-02 11:35:00,93.4,75.4,30.04,SW,224,0.0,0.0,56,0.00,,,0.00,Wunderground v.1.15,2014-09-02 16:35:00,
2014-09-02 11:40:00,93.6,74.5,30.04,SSE,156,0.0,1.0,54,0.00,,,0.00,Wunderground v.1.15,2014-09-02 16:40:00,
2014-09-02 11:44:00,93.6,73.3,30.04,West,259,1.0,1.0,52,0.00,,,0.00,Wunderground v.1.15,2014-09-02 16:44:00,
2014-09-02 11:54:00,93.6,73.3,30.04,West,277,1.0,1.0,52,0.00,,,0.00,Wunderground v.1.15,2014-09-02 16:54:00,
2014-09-02 11:59:00,94.0,74.3,30.03,West,267,1.0,1.0,53,0.00,,,0.00,Wunderground v.1.15,2014-09-02 16:59:00,
2014-09-02 12:09:00,93.8,72.3,30.03,NW,315,0.0,0.0,50,0.00,,,0.00,Wunderground v.1.15,2014-09-02 17:09:00,
2014-09-02 12:14:00,93.9,74.2,30.03,SE,134,0.0,0.0,53,0.00,,,0.00,Wunderground v.1.15,2014-09-02 17:14:00,
2014-09-02 12:19:00,94.8,74.4,30.02,SW,225,0.0,1.0,52,0.00,,,0.00,Wunderground v.1.15,2014-09-02 17:19:00,
2014-09-02 12:30:00,95.1,73.5,30.02,NW,325,0.0,0.0,50,0.00,,,0.00,Wunderground v.1.15,2014-09-02 17:30:00,
2014-09-02 12:34:00,95.3,73.7,30.02,NNE,26,0.0,0.0,50,0.00,,,0.00,Wunderground v.1.15,2014-09-02 17:34:00,
2014-09-02 12:40:00,95.7,72.9,30.02,SSE,148,1.0,1.0,48,0.00,,,0.00,Wunderground v.1.15,2014-09-02 17:40:00,
2014-09-02 12:44:00,96.0,73.8,30.01,SW,231,1.0,1.0,49,0.00,,,0.00,Wunderground v.1.15,2014-09-02 17:44:00,
2014-09-02 12:49:00,96.7,74.4,30.01,SE,138,0.0,0.0,49,0.00,,,0.00,Wunderground v.1.15,2014-09-02 17:49:00,
2014-09-02 12:59:00,97.5,75.1,30.01,SW,224,0.0,1.0,49,0.00,,,0.00,Wunderground v.1.15,2014-09-02 17:59:00,
2014-09-02 13:04:00,98.1,73.8,30.01,East,101,0.0,1.0,46,0.00,,,0.00,Wunderground v.1.15,2014-09-02 18:04:00,
2014-09-02 13:09:00,98.2,72.6,30.00,SW,225,0.0,1.0,44,0.00,,,0.00,Wunderground v.1.15,2014-09-02 18:09:00,
2014-09-02 13:14:00,98.5,76.0,30.00,West,260,0.0,1.0,49,0.00,,,0.00,Wunderground v.1.15,2014-09-02 18:14:00,
2014-09-02 13:24:00,100.6,75.4,30.00,SE,129,0.0,2.0,45,0.00,,,0.00,Wunderground v.1.15,2014-09-02 18:24:00,
2014-09-02 13:29:00,100.3,73.1,30.00,South,177,0.0,0.0,42,0.00,,,0.00,Wunderground v.1.15,2014-09-02 18:29:00,
2014-09-02 13:39:00,99.9,72.7,30.00,South,186,0.0,0.0,42,0.00,,,0.00,Wunderground v.1.15,2014-09-02 18:39:00,
2014-09-02 13:44:00,99.5,71.6,30.00,SSE,159,0.0,0.0,41,0.00,,,0.00,Wunderground v.1.15,2014-09-02 18:44:00,
2014-09-02 13:49:00,98.9,72.5,29.99,SSE,160,0.0,0.0,43,0.00,,,0.00,Wunderground v.1.15,2014-09-02 18:49:00,
2014-09-02 13:59:00,97.5,71.9,29.99,NE,36,0.0,0.0,44,0.00,,,0.00,Wunderground v.1.15,2014-09-02 18:59:00,
2014-09-02 14:04:00,97.1,74.1,29.99,North,350,0.0,0.0,48,0.00,,,0.00,Wunderground v.1.15,2014-09-02 19:04:00,
2014-09-02 14:14:00,98.0,72.4,29.98,WSW,240,0.0,0.0,44,0.00,,,0.00,Wunderground v.1.15,2014-09-02 19:14:00,
2014-09-02 14:24:00,97.5,71.9,29.97,NW,316,0.0,0.0,44,0.00,,,0.00,Wunderground v.1.15,2014-09-02 19:24:00,
2014-09-02 14:34:00,98.2,75.8,29.97,NE,46,0.0,1.0,49,0.00,,,0.00,Wunderground v.1.15,2014-09-02 19:34:00,
2014-09-02 14:39:00,99.3,73.5,29.96,WNW,290,0.0,0.0,44,0.00,,,0.00,Wunderground v.1.15,2014-09-02 19:39:00,
2014-09-02 14:44:00,99.8,73.3,29.96,SSW,208,0.0,1.0,43,0.00,,,0.00,Wunderground v.1.15,2014-09-02 19:44:00,
2014-09-02 14:49:00,99.5,73.0,29.95,SSW,198,0.0,0.0,43,0.00,,,0.00,Wunderground v.1.15,2014-09-02 19:49:00,
2014-09-02 14:54:00,98.9,72.5,29.95,SSW,198,0.0,0.0,43,0.00,,,0.00,Wunderground v.1.15,2014-09-02 19:54:00,
2014-09-02 15:04:00,95.8,71.7,29.95,SW,218,0.0,0.0,46,0.00,,,0.00,Wunderground v.1.15,2014-09-02 20:04:00,
2014-09-02 15:09:00,95.2,73.6,29.95,West,264,0.0,0.0,50,0.00,,,0.00,Wunderground v.1.15,2014-09-02 20:09:00,
2014-09-02 15:19:00,95.5,72.7,29.95,NW,321,0.0,0.0,48,0.00,,,0.00,Wunderground v.1.15,2014-09-02 20:19:00,
2014-09-02 15:24:00,95.0,72.8,29.95,WNW,284,0.0,0.0,49,0.00,,,0.00,Wunderground v.1.15,2014-09-02 20:24:00,
2014-09-02 15:29:00,94.4,72.9,29.95,SW,233,1.0,3.0,50,0.00,,,0.00,Wunderground v.1.15,2014-09-02 20:29:00,
2014-09-02 15:39:00,95.0,72.8,29.95,North,350,1.0,1.0,49,0.00,,,0.00,Wunderground v.1.15,2014-09-02 20:39:00,
2014-09-02 15:44:00,95.0,74.0,29.96,SW,214,2.0,2.0,51,0.00,,,0.00,Wunderground v.1.15,2014-09-02 20:44:00,
2014-09-02 15:54:00,92.5,74.0,29.96,WNW,283,2.0,2.0,55,0.00,,,0.00,Wunderground v.1.15,2014-09-02 20:54:00,
2014-09-02 16:04:00,89.9,74.2,29.95,SW,225,1.0,1.0,60,0.00,,,0.00,Wunderground v.1.15,2014-09-02 21:04:00,
2014-09-02 16:09:00,89.2,74.0,29.95,WNW,284,1.0,1.0,61,0.00,,,0.00,Wunderground v.1.15,2014-09-02 21:09:00,
2014-09-02 16:19:00,87.9,73.7,29.95,NNW,346,1.0,1.0,63,0.00,,,0.00,Wunderground v.1.15,2014-09-02 21:19:00,
2014-09-02 16:24:00,87.7,73.5,29.95,South,169,1.0,1.0,63,0.00,,,0.00,Wunderground v.1.15,2014-09-02 21:24:00,
2014-09-02 16:29:00,87.5,73.8,29.95,SE,136,0.0,1.0,64,0.00,,,0.00,Wunderground v.1.15,2014-09-02 21:29:00,
2014-09-02 16:34:00,87.3,74.1,29.95,NW,316,1.0,1.0,65,0.00,,,0.00,Wunderground v.1.15,2014-09-02 21:34:00,
2014-09-02 16:44:00,88.0,73.8,29.95,WSW,246,1.0,2.0,63,0.00,,,0.00,Wunderground v.1.15,2014-09-02 21:44:00,
2014-09-02 16:49:00,88.3,73.1,29.95,NNW,341,0.0,0.0,61,0.00,,,0.00,Wunderground v.1.15,2014-09-02 21:49:00,
2014-09-02 16:59:00,87.8,72.7,29.95,West,280,1.0,1.0,61,0.00,,,0.00,Wunderground v.1.15,2014-09-02 21:59:00,
2014-09-02 17:04:00,87.6,72.5,29.94,WSW,242,1.0,1.0,61,0.00,,,0.00,Wunderground v.1.15,2014-09-02 22:04:00,
2014-09-02 17:09:00,87.6,73.0,29.94,SSE,156,1.0,1.0,62,0.00,,,0.00,Wunderground v.1.15,2014-09-02 22:09:00,
2014-09-02 17:19:00,87.1,73.0,29.93,SSE,159,1.0,1.0,63,0.00,,,0.00,Wunderground v.1.15,2014-09-02 22:19:00,
2014-09-02 17:24:00,86.8,73.2,29.93,West,271,1.0,1.0,64,0.00,,,0.00,Wunderground v.1.15,2014-09-02 22:24:00,
2014-09-02 17:34:00,86.7,73.1,29.93,SSE,166,0.0,0.0,64,0.00,,,0.00,Wunderground v.1.15,2014-09-02 22:34:00,
2014-09-02 17:39:00,86.6,73.4,29.93,SSE,167,0.0,0.0,65,0.00,,,0.00,Wunderground v.1.15,2014-09-02 22:39:00,
2014-09-02 17:49:00,86.3,73.6,29.92,SW,225,0.0,0.0,66,0.00,,,0.00,Wunderground v.1.15,2014-09-02 22:49:00,
2014-09-02 17:54:00,86.1,73.0,29.93,SSW,204,0.0,0.0,65,0.00,,,0.00,Wunderground v.1.15,2014-09-02 22:54:00,
2014-09-02 17:59:00,85.8,73.1,29.93,SW,218,1.0,1.0,66,0.00,,,0.00,Wunderground v.1.15,2014-09-02 22:59:00,
2014-09-02 18:04:00,85.6,72.9,29.94,NNW,346,0.0,1.0,66,0.00,,,0.00,Wunderground v.1.15,2014-09-02 23:04:00,
2014-09-02 18:09:00,85.6,73.4,29.94,SW,215,0.0,1.0,67,0.00,,,0.00,Wunderground v.1.15,2014-09-02 23:09:00,
2014-09-02 18:19:00,85.6,73.4,29.94,SSE,148,0.0,0.0,67,0.00,,,0.00,Wunderground v.1.15,2014-09-02 23:19:00,
2014-09-02 18:29:00,85.5,73.3,29.94,SSW,210,0.0,0.0,67,0.00,,,0.00,Wunderground v.1.15,2014-09-02 23:29:00,
2014-09-02 18:34:00,85.4,73.6,29.95,NNE,12,0.0,0.0,68,0.00,,,0.00,Wunderground v.1.15,2014-09-02 23:34:00,
2014-09-02 18:44:00,85.3,73.5,29.95,SSW,204,1.0,1.0,68,0.00,,,0.00,Wunderground v.1.15,2014-09-02 23:44:00,
2014-09-02 18:49:00,85.2,73.4,29.95,SSW,205,0.0,0.0,68,0.00,,,0.00,Wunderground v.1.15,2014-09-02 23:49:00,
2014-09-02 18:59:00,84.8,73.5,29.95,WNW,285,0.0,0.0,69,0.00,,,0.00,Wunderground v.1.15,2014-09-02 23:59:00,
2014-09-02 19:04:00,84.6,73.3,29.95,NNW,339,0.0,0.0,69,0.00,,,0.00,Wunderground v.1.15,2014-09-03 00:04:00,
2014-09-02 19:09:00,84.4,73.1,29.96,NW,318,0.0,0.0,69,0.00,,,0.00,Wunderground v.1.15,2014-09-03 00:09:00,
2014-09-02 19:14:00,84.1,73.3,29.95,SSW,203,0.0,0.0,70,0.00,,,0.00,Wunderground v.1.15,2014-09-03 00:14:00,
2014-09-02 19:19:00,83.9,73.1,29.95,SW,224,0.0,0.0,70,0.00,,,0.00,Wunderground v.1.15,2014-09-03 00:19:00,
2014-09-02 19:24:00,83.6,73.2,29.95,SW,224,0.0,0.0,71,0.00,,,0.00,Wunderground v.1.15,2014-09-03 00:24:00,
2014-09-02 19:29:00,83.4,73.4,29.95,East,87,0.0,0.0,72,0.00,,,0.00,Wunderground v.1.15,2014-09-03 00:29:00,
2014-09-02 19:34:00,83.1,73.1,29.95,North,355,0.0,0.0,72,0.00,,,0.00,Wunderground v.1.15,2014-09-03 00:34:00,
2014-09-02 19:39:00,82.8,73.3,29.95,North,352,0.0,0.0,73,0.00,,,0.00,Wunderground v.1.15,2014-09-03 00:39:00,
2014-09-02 19:44:00,82.6,73.1,29.95,SSW,207,0.0,0.0,73,0.00,,,0.00,Wunderground v.1.15,2014-09-03 00:44:00,
2014-09-02 19:54:00,82.1,73.0,29.94,SSW,207,0.0,0.0,74,0.00,,,0.00,Wunderground v.1.15,2014-09-03 00:54:00,
2014-09-02 19:59:00,81.9,73.2,29.94,SSW,207,0.0,0.0,75,0.00,,,0.00,Wunderground v.1.15,2014-09-03 00:59:00,
2014-09-02 20:04:00,81.7,73.4,29.94,SSW,207,0.0,0.0,76,0.00,,,0.00,Wunderground v.1.15,2014-09-03 01:04:00,
2014-09-02 20:09:00,81.4,73.1,29.95,SSW,207,0.0,0.0,76,0.00,,,0.00,Wunderground v.1.15,2014-09-03 01:09:00,
2014-09-02 20:14:00,81.1,73.2,29.95,SSW,207,0.0,0.0,77,0.00,,,0.00,Wunderground v.1.15,2014-09-03 01:14:00,
2014-09-02 20:19:00,80.9,73.0,29.95,SSW,207,0.0,0.0,77,0.00,,,0.00,Wunderground v.1.15,2014-09-03 01:19:00,
2014-09-02 20:29:00,80.4,72.9,29.94,SSW,207,0.0,0.0,78,0.00,,,0.00,Wunderground v.1.15,2014-09-03 01:29:00,
2014-09-02 20:34:00,80.2,73.1,29.94,SSW,207,0.0,0.0,79,0.00,,,0.00,Wunderground v.1.15,2014-09-03 01:34:00,
2014-09-02 20:39:00,79.9,73.2,29.94,SSW,207,0.0,0.0,80,0.00,,,0.00,Wunderground v.1.15,2014-09-03 01:39:00,
2014-09-02 20:44:00,79.6,72.9,29.94,SSW,207,0.0,0.0,80,0.00,,,0.00,Wunderground v.1.15,2014-09-03 01:44:00,
2014-09-02 20:49:00,79.3,73.0,29.94,SSW,207,0.0,0.0,81,0.00,,,0.00,Wunderground v.1.15,2014-09-03 01:49:00,
2014-09-02 20:59:00,78.6,72.6,29.94,SSW,207,0.0,0.0,82,0.00,,,0.00,Wunderground v.1.15,2014-09-03 01:59:00,
2014-09-02 21:04:00,78.3,72.3,29.94,SSW,207,0.0,0.0,82,0.00,,,0.00,Wunderground v.1.15,2014-09-03 02:04:00,
2014-09-02 21:14:00,77.8,72.2,29.94,SSW,207,0.0,0.0,83,0.00,,,0.00,Wunderground v.1.15,2014-09-03 02:14:00,
2014-09-02 21:24:00,77.2,71.6,29.94,SSW,207,0.0,0.0,83,0.00,,,0.00,Wunderground v.1.15,2014-09-03 02:24:00,
2014-09-02 21:29:00,77.0,71.4,29.94,SSW,207,0.0,0.0,83,0.00,,,0.00,Wunderground v.1.15,2014-09-03 02:29:00,
2014-09-02 21:39:00,76.6,71.0,29.95,SSW,207,0.0,0.0,83,0.00,,,0.00,Wunderground v.1.15,2014-09-03 02:39:00,
2014-09-02 21:44:00,76.4,70.5,29.96,SSW,207,0.0,0.0,82,0.00,,,0.00,Wunderground v.1.15,2014-09-03 02:44:00,
2014-09-02 21:49:00,76.3,70.0,29.96,SSW,207,0.0,0.0,81,0.00,,,0.00,Wunderground v.1.15,2014-09-03 02:49:00,